Paso Robles, CA

5:05 AM PST on February 24, 2017 (GMT -0800)
Paso Robles Municipal

Weather History for KPRB - April, 2013

Change the Weather History Date:

Sunday, April 21, 2013

  Actual Average Record
Temperature  
Mean Temperature 68 °F 58 °F  
Max Temperature 92 °F 74 °F 99 °F (2009)
Min Temperature 44 °F 42 °F 30 °F (1963)
Degree Days  
Heating Degree Days 0 8  
Month to date heating degree days 86 195  
Since 1 July heating degree days 2335 2654  
Cooling Degree Days 3 0  
Month to date cooling degree days 4 0  
Year to date cooling degree days 4 0  
Growing Degree Days 17 (Base 50)    
Moisture  
Dew Point 34 °F    
Average Humidity 35    
Maximum Humidity 65    
Minimum Humidity 5    
Precipitation  
Precipitation 0.00 in 0.02 in 0.49 in (1955)
Month to date precipitation 0.01 0.54  
Year to date precipitation 1.41 8.37  
Since 1 July precipitation 4.62  
Sea Level Pressure  
Sea Level Pressure 29.96 in    
Wind  
Wind Speed 4 mph (SW)    
Max Wind Speed 12 mph    
Max Gust Speed 16 mph    
Visibility 10 miles    
Events      
T = Trace of Precipitation, MM = Missing Value Source: NWS Daily Summary

Daily Weather History Graph

Daily Weather History Graph

Search for Another Location

Airport or City:

Trip Planner

Search our weather history database for the weather conditions in past years. The results will help you decide how hot, cold, wet, or windy it might be!

Date:

Astronomy

Apr. 21, 2013 Rise Set
Actual Time 6:21 AM PDT 7:41 PM PDT
Civil Twilight 5:55 AM PDT 8:07 PM PDT
Nautical Twilight 5:23 AM PDT 8:39 PM PDT
Astronomical Twilight 4:50 AM PDT 9:13 PM PDT
Moon 3:39 PM PDT (4/21) 3:37 AM PDT (4/21)
Length of Visible Light 14h 12m
Length of Day
13h 19m
Waxing Gibbous, 81% of the Moon is Illuminated
Apr 21
Waxing Gibbous
Apr 25
Full
May 2
Last Quarter
May 9
New
May 17
First Quarter

Hourly Weather History & Observations

Time (PDT) Temp. Dew Point Humidity Pressure Visibility Wind Dir Wind Speed Gust Speed Precip Events Conditions
12:53 AM 54.0 °F 37.9 °F 55% 30.01 in 10.0 mi ESE 4.6 mph - N/A   Clear
1:53 AM 51.1 °F 37.0 °F 59% 30.00 in 10.0 mi Calm Calm - N/A   Clear
2:53 AM 46.9 °F 35.1 °F 63% 29.98 in 10.0 mi Calm Calm - N/A   Clear
3:53 AM 48.0 °F 36.0 °F 63% 29.98 in 10.0 mi Calm Calm - N/A   Clear
4:53 AM 46.0 °F 35.1 °F 66% 29.98 in 10.0 mi Calm Calm - N/A   Clear
5:53 AM 46.0 °F 35.1 °F 66% 29.99 in 10.0 mi Calm Calm - N/A   Clear
6:53 AM 44.1 °F 34.0 °F 68% 30.00 in 10.0 mi Calm Calm - N/A   Clear
7:21 AM 46.4 °F 35.6 °F 66% 30.02 in 10.0 mi Calm Calm - N/A   Partly Cloudy
7:53 AM 51.1 °F 37.9 °F 61% 30.01 in 10.0 mi Calm Calm - N/A   Clear
8:53 AM 59.0 °F 37.0 °F 44% 30.01 in 10.0 mi Calm Calm - N/A   Clear
9:53 AM 66.0 °F 39.0 °F 37% 30.01 in 10.0 mi WNW 4.6 mph - N/A   Clear
10:53 AM 75.0 °F 37.0 °F 25% 30.01 in 10.0 mi NW 4.6 mph - N/A   Clear
11:53 AM 81.0 °F 33.1 °F 18% 29.99 in 10.0 mi Variable 3.5 mph - N/A   Clear
12:53 PM 84.9 °F 28.0 °F 13% 29.96 in 10.0 mi Variable 3.5 mph - N/A   Clear
1:53 PM 89.1 °F 25.0 °F 10% 29.94 in 10.0 mi WNW 9.2 mph - N/A   Clear
2:53 PM 90.0 °F 12.9 °F 6% 29.92 in 10.0 mi Variable 3.5 mph - N/A   Clear
3:53 PM 90.0 °F 10.9 °F 5% 29.90 in 10.0 mi Calm Calm - N/A   Clear
4:53 PM 90.0 °F 37.0 °F 15% 29.88 in 10.0 mi SW 12.7 mph 16.1 mph N/A   Clear
5:53 PM 89.1 °F 36.0 °F 15% 29.88 in 10.0 mi SSW 11.5 mph - N/A   Clear
6:53 PM 82.0 °F 39.9 °F 22% 29.88 in 10.0 mi South 10.4 mph - N/A   Clear
7:53 PM 75.0 °F 41.0 °F 29% 29.92 in 10.0 mi South 8.1 mph - N/A   Clear
8:53 PM 71.1 °F 39.9 °F 32% 29.94 in 10.0 mi South 10.4 mph - N/A   Clear
9:53 PM 70.0 °F 37.9 °F 31% 29.96 in 10.0 mi SSW 3.5 mph - N/A   Clear
11:53 PM 62.1 °F 39.9 °F 44% 29.96 in 10.0 mi South 5.8 mph - N/A   Clear